Flag for Canada Weather past 2 weeks in Summerside, Pr.Edward I, Canada

Now
57 °F

Cool.


Feels Like: 54 °F
Forecast: 47 / 59 °F
Wind: 15 mph from Northeast

Location: Summerside Airport

Current Time: Oct 2, 2014 at 2:11:39 PM

Latest Report: Oct 2, 2014 at 1:00 PM


Visibility: N/A

Pressure: 30.27 "Hg

Humidity: 66%

Dew point: 46 °F

Location of SummersideLocation

Historic Weather in Summerside — Graph

°F

Summerside temperature yesterday

Maximum temperature yesterday: 55 °F (at 12:00 AM)
Minimum temperature yesterday: 49 °F (at 10:00 PM)
Average temperature yesterday: 53 °F

Past Weeks' High & Low Weather Summary

 TemperatureHumidityPressure
High77 °F (Sep 28, 4:00 PM)100% (Sep 22, 9:00 AM)30.61 "Hg (Sep 22, 9:00 AM)
Low35 °F (Sep 19, 11:00 PM)33% (Sep 24, 4:00 PM)29.31 "Hg (Sep 22, 7:00 AM)
Average56 °F74%30.07 "Hg
* Reported Sep 17 1:00 PM — Oct 2 1:00 PM, Summerside, Weather by CustomWeather, © 2014

Note: Actual official high and low records may vary slightly from our data, if they occured in-between our weather recording intervals... More about our weather records

Advertising

Summerside weather history for previous 24 hours

 ConditionsComfort  
Time TempWeatherWind HumidityBarometerVisibility
1:00 PM
Oct 2
57 °FCool.15 mph66%30.27 "HgN/A
12:00 PM56 °FCool.16 mph63%30.27 "HgN/A
11:00 AM55 °FCool.16 mph68%30.27 "HgN/A
10:00 AM54 °FCool.15 mph67%30.29 "HgN/A
9:00 AM53 °FCool.13 mph71%30.29 "HgN/A
8:00 AM50 °FCool.13 mph72%30.26 "HgN/A
7:00 AM50 °FCool.14 mph78%30.24 "HgN/A
6:00 AM50 °FCool.12 mph76%30.23 "HgN/A
5:00 AM50 °FCool.10 mph77%30.23 "HgN/A
4:00 AM49 °FCool.9 mph79%30.23 "HgN/A
3:00 AM49 °FCool.9 mph77%30.23 "HgN/A
2:00 AM50 °FCool.9 mph80%30.24 "HgN/A
1:00 AM50 °FCool.10 mph73%30.24 "HgN/A
12:00 AM50 °FCool.9 mph82%30.25 "HgN/A
11:00 PM
Oct 1
50 °FCool.10 mph82%30.25 "HgN/A
10:00 PM49 °FCool.8 mph83%30.25 "HgN/A
9:00 PM50 °FCool.12 mph80%30.24 "HgN/A
8:00 PM50 °FCool.10 mph78%30.24 "HgN/A
7:00 PM51 °FCool.9 mph71%30.22 "HgN/A
6:00 PM52 °FCool.10 mph72%30.21 "HgN/A
5:00 PM53 °FCool.12 mph71%30.20 "HgN/A
4:00 PM53 °FCool.12 mph71%30.19 "HgN/A
3:00 PM54 °FCool.12 mph72%30.19 "HgN/A
2:00 PM53 °FCool.10 mph79%30.19 "HgN/A
Weather by CustomWeather, © 2014

See weather overviewHow to use our weather pages